Weather in Zemtsy

Russia / Tver Oblast     56°14′42″N   32°22′34″E
temp.,
°C
wind,
m/s
gust,
m/s
humid.,
%
clouds,
%
prec.,
mm/h
press.,
hPa
HPBL,
m
18 may, tue
tue1800:00+16ese4129220 0.0 1004355
03:00+16ese4119472 0.0 1004353
06:00+16ese4119478 0.1 1004444
09:00+20se5107979 0.1 1004615
12:00+23sse5106432 0.8 10041530
15:00+23se5969100 1.9 10041395
18:00+20sse3982100 1.8 1003393
21:00+17ese378995 2.2 1003139
19 may, wed
wed1900:00+17se5139082 1.3 1002717
03:00+13se5119556 1.3 1003487
06:00+13se3109498 0.0 1003380
09:00+18sse587797 0.0 1004929
12:00+15sse3892100 1.6 1004464
15:00+18sse4778100 2.4 10051081
18:00+18sse36825 1.6 1005847
21:00+14se2293100 2.1 100613
20 may, thu
thu2000:00+13e119596 0.0 100613
03:00+13ne249790 0.3 100491
06:00+13ne279899 0.9 1003228
09:00+15ene2795100 1.8 1002630
12:00+16e488691 0.6 1001993
15:00+16sse6108522 3.6 10011151
18:00+13se41089100 0.4 1001840
21:00+11se4990100 0.4 1001621
21 may, fri
fri2100:00+10se4787100 0.1 1001756
03:00+8sse3694100 0.3 1001554
06:00+9sw2598100 1.9 1002413
09:00+8wnw61396100 4.1 1005872
12:00+8w61392100 0.2 1009799
15:00+16w69445 0.2 10111836
18:00+16w485121 0.0 10122184
21:00+12wsw4106830 0.1 1014390
22 may, sat
sat2200:00+7wsw27911 0.1 1016131
03:00+5sw279487 0.1 1017157
06:00+6sw24910 0.0 1018131
09:00+12sw24562 0.0 1019891
12:00+16ssw23425 0.0 10181437
15:00+18s233641 0.0 10171843
18:00+17s244599 0.0 10171883
21:00+11ssw127320 0.0 101710